Home   Weather   Sibiu   Past weeks

Flag for Romania Past Weather in Sibiu, Romania — Yesterday and Last 2 Weeks

Now
23 °F

Ice fog.


Feels Like: 23 °F
Forecast: 22 / 42 °F
Wind: 1 mph from North

Location: Sibiu Airport

Current Time: Dec 9, 2016 at 8:01:30 am

Latest Report: Dec 9, 2016 at 7:30 am


Visibility: 3 mi

Pressure: 30.36 "Hg

Humidity: 93%

Dew Point: 21 °F

Location of SibiuLocation

Past Weather in Sibiu — Graph

°F

Sibiu Temperature Yesterday

Maximum temperature yesterday: 28 °F (at 6:00 pm)
Minimum temperature yesterday: 16 °F (at 5:30 am)
Average temperature yesterday: 22 °F

High & Low Weather Summary for the Past Weeks

 TemperatureHumidityPressure
High54 °F (Nov 26, 2:30 pm)100% (Nov 24, 9:00 am)30.72 "Hg (Nov 24, 9:00 am)
Low14 °F (Dec 5, 6:00 am)41% (Dec 4, 2:30 pm)29.47 "Hg (Dec 2, 12:30 pm)
Average29 °F79%30.20 "Hg
* Reported Nov 24 6:00 am — Dec 9 6:30 am, Sibiu, Weather by CustomWeather, © 2016

Note: Actual official high and low records may vary slightly from our data, if they occured in-between our weather recording intervals... More about our weather records

Advertising

Sibiu Weather History for the Previous 24 Hours

Scroll right to see more
 ConditionsComfort  
Time TempWeatherWind HumidityBarometerVisibility
6:30 am
Fri, Dec 9
23 °FIce fog.No wind86%30.36 "Hg2 mi
6:00 am21 °FIce fog.2 mph93%30.36 "Hg2 mi
5:30 am21 °FIce fog.1 mph93%30.36 "Hg2 mi
5:00 am21 °FIce fog.2 mph93%30.36 "Hg2 mi
4:30 am21 °FIce fog.5 mph93%30.36 "Hg2 mi
4:00 am21 °FIce fog.1 mph93%30.39 "Hg2 mi
3:30 am23 °FIce fog.2 mph86%30.39 "Hg2 mi
3:00 am21 °FIce fog.3 mph93%30.39 "Hg2 mi
2:30 am23 °FIce fog.1 mph93%30.42 "Hg2 mi
2:00 am21 °FIce fog.2 mph93%30.42 "Hg2 mi
1:30 am23 °FIce fog.No wind93%30.45 "Hg2 mi
1:00 am23 °FIce fog.2 mph93%30.42 "Hg2 mi
12:30 am23 °FIce fog.1 mph86%30.42 "Hg2 mi
11:30 pm
Thu, Dec 8
21 °FIce fog.1 mph93%30.45 "Hg2 mi
11:00 pm23 °FIce fog.1 mph93%30.45 "Hg2 mi
10:30 pm23 °FIce fog.1 mph93%30.48 "Hg2 mi
10:00 pm23 °FIce fog.No wind93%30.48 "Hg3 mi
9:30 pm27 °FIce fog.1 mph86%30.48 "Hg3 mi
9:00 pm27 °FPassing clouds.2 mph86%30.48 "Hg4 mi
8:30 pm28 °FOvercast.2 mph80%30.48 "Hg4 mi
8:00 pm28 °FPassing clouds.1 mph80%30.48 "Hg4 mi
7:30 pm27 °FIce fog.3 mph86%30.51 "Hg3 mi
7:00 pm27 °FIce fog.5 mph86%30.51 "Hg3 mi
6:30 pm28 °FIce fog.2 mph80%30.51 "Hg3 mi
6:00 pm28 °FOvercast.2 mph80%30.54 "Hg4 mi
5:00 pm27 °FIce fog.3 mph86%30.51 "Hg3 mi
4:30 pm27 °FIce fog.3 mph86%30.54 "Hg3 mi
4:00 pm27 °FIce fog.5 mph86%30.54 "Hg3 mi
3:30 pm27 °FIce fog.5 mph86%30.54 "Hg3 mi
3:00 pm25 °FIce fog.3 mph93%30.54 "Hg2 mi
2:30 pm25 °FIce fog.3 mph93%30.54 "Hg2 mi
2:00 pm25 °FIce fog.5 mph93%30.54 "Hg2 mi
1:30 pm23 °FIce fog.3 mph93%30.54 "Hg2 mi
1:00 pm23 °FIce fog.2 mph93%30.57 "Hg1 mi
12:30 pm21 °FIce fog.1 mph93%30.60 "Hg1 mi
12:00 pm21 °FIce fog.1 mph93%30.60 "Hg1 mi
11:30 am19 °FIce fog.1 mph93%30.63 "Hg1 mi
11:00 am19 °FIce fog.2 mph93%30.63 "Hg1 mi
10:30 am18 °FIce fog.3 mph93%30.63 "Hg0 mi
10:00 am19 °FIce fog.2 mph86%30.66 "Hg0 mi
9:30 am18 °FIce fog.1 mph93%30.66 "Hg1 mi
9:00 am18 °FIce fog.3 mph86%30.66 "Hg1 mi
8:30 am18 °FIce fog.2 mph86%30.66 "Hg0 mi
8:00 am16 °FIce fog.3 mph93%30.66 "Hg0 mi
Weather by CustomWeather, © 2016

See weather overviewHow to use our weather pages